Погода в Шиели

Погода в Шиели : погода сейчас, прогноз погоды и архив. Всё, что Вы хотите узнать о погоде в Шиели!

Хотите узнать прогноз погоды в Шиели? Тогда Вам сюда: Погода в Шиели

Поиск расширенной информации на нашем сайте:

Другие новости

Новости СМИ2

Главная страница сайта

Новости сайта

02.10.2013

Напоминаем, что на нашем новом сайте вы можете получить высокодетализированные прогнозы погоды по пунктам России, СНГ и мира (включающие важные для авиации метеовеличины, такие как направление и скорость ветра, видимость, явления погоды, количество и форма облачности, нижняя и верхняя граница облачности), а также ознакомиться с разнообразными материалами по авиационной метеорологии и подборкой полезных ссылок на эту тему.

Сайт Метеоцентр.Азия посвящён разработке технологий оптимизации авиаметеорологического обслуживания, включая проектирование и перспективное создание нескольких автоматизированных авиаметеорологических систем:
- система выпуска высокодетальных прогностических карт явлений погоды для нижнего воздушного пространства по России и ближнему зарубежью;
- система верификации прогнозов TAF (выпускаемых синоптиками официальных АМСГ РФ и ближнего зарубежья) и AUTOTAF (выпускаемых сайтом Метеоцентр.Азия) - выявление ошибок, онлайн-сопоставление с фактической погодой METAR, автоматическое внесение коррективов в прогнозы при резком отклонении фактической погоды от прогноза, подсчёт оправдываемости прогнозов по элементам и в целом;
- система обработки, анализа и отображения авиаметеорологической информации для применения провайдерами метеорологической информации.

Рекомендуем: Ремонт электротранспорта обслуживание ж и электротранспорта.

Погода в Шиели - сегодня

Время (UTC), дата Ветер
(°,м/с) 
Видим.   Явления Облачность Т
(°С)
Тd
(°С)
f(%) Тe
(°С)
Pmin
(гПа)
dP
(гПа)
Po
(мм)
O2
(г/м3)
Тmin Tmax R s Состояние
почвы
18 19.06.17 260 (З) н/о    ясно 
+21.6 +8.8 44 +22  1006.1  0.6  741  275    +34       
21 19.06.17 290 (З) н/о    ясно 
+18.4 +8.5 52 +20  1005.9  -0.5  741  278           
00 20.06.17 290 (З) 20000 м    ясно 
+16.5 +7.8 56 +18  1006.1  0.1  741  280           
03 20.06.17 320 (СЗ) 20000 м    3/0 верхняя 
[Ci fib]
+23.1 +9.2 41 +23  1005.8  0.2  741  274           
06 20.06.17 340 (С) 20000 м    8/0 верхняя 
[Ci fib]
+31.4 +5.3 19 +31  1005.1  -0.2  741  267  +16         
09 20.06.17 310 (СЗ) 20000 м    6/0 верхняя 
[Ci sp]
+33.4 +3.2 15 +33  1004  -1  740  265           
12 20.06.17 350 (С) 20000 м    3/0 верхняя 
[Ci sp]
+34 +3 14 +34  1003.5  -0.5  740  265           
15 20.06.17 360 (С) 20000 м    3/0 верхняя 
[Ci fib]
+30.6 +5.3 20 +31  1003.4  -0.3  740  267    +35.4       
18 20.06.17 010 (С) н/о    ясно 
+26 +5.6 27 +26  1004.7  1.1  741  272    +35.4       
21 20.06.17 030 (СВ) н/о    ясно 
+23.1 +6.1 33 +23  1004.4  -0.4  740  274           
00 21.06.17 050 (СВ) 20000 м    ясно 
+19 +5.3 41 +21  1004.1  -0.6  740  278           
03 21.06.17 010 (С) 20000 м    ясно 
+26.3 +7.3 30 +26  1003.9  0.2  740  271           
06 21.06.17 360 (С) 20000 м    1/0 верхняя 
[Ci fib]
+33.2 +7.6 21 +33  1003.3  -0.2  740  265  +18.8         
09 21.06.17 340 (С) 20000 м    3/0 верхняя 
[Ci fib]
+35.4 +5.6 16 +35  1002  -1.1  739  263           
12 21.06.17 340 (С) 20000 м    1/0 верхняя 
[Ci fib]
+35.7 +6.2 16 +36  1001.3  -0.7  738  262           
15 21.06.17 020 (С) 20000 м    3/0 верхняя 
[Ci]
+31.1 +6.7 22 +31  1002.2  0.6  739  266    +36.5       
18 21.06.17 010 (С) н/о    ясно 
+26.4 +6.7 29 +26  1003.1  0.6  739  271    +36.5       
21 21.06.17 030 (СВ) н/о    ясно 
+25 +7.1 32 +25  1002  -1.1  739  271           
00 22.06.17 050 (СВ) 10 км    8/0 средняя 
[Ac lent]
+23.6 +8.6 38 +24  1001.6  -0.5  738  272           
03 22.06.17 030 (СВ) 20000 м    6/0 средняя 
[Ac trans]
+29.2 +9 28 +29  1000.9  -0.4  738  267           
06 22.06.17 240 (ЮЗ) 10 км    9/0 средняя 
[Ac As]
+31 +7.7 23 +31  1000.9  0.1  738  266  +23.4         
09 22.06.17 230 (ЮЗ) 20000 м    8/0 средняя 
[Ac cast]
+34 +7 19 +34  999.1  -1.6  737  263           
12 22.06.17 040 (СВ) 20000 м    8/0 средняя 
[Ac lent]
+36.1 +8.4 18 +36  996.6  -2.4  735  260           
15 22.06.17 тихо ()   20000 м    3/0 верхняя 
[Ci ing]
+32.6 +11.5 28 +36  996.6  -0.1  735  262    +37.4       
18 22.06.17 тихо ()   н/о    ясно 
+25.8 +12.9 45 +32  997.5  0.5  735  268    +37.4       
Время (UTC), дата Ветер
(°,м/с) 
Видим.   Явления Облачность Т
(°С)
Тd
(°С)
f(%) Тe
(°С)
Pmin
(гПа)
dP
(гПа)
Po
(мм)
O2
(г/м3)
Тmin Tmax R s Состояние
почвы

Для получения пояснительной информации подведите курсор к названию столбца.

ПОГОДА в Шиели - архив

Всё, что Вы хотите узнать о погоде в Шиели - удобно и подробно!

Выберите нужную дату (начиная с 1 января 2015* года) и нажмите кнопку "Найти".
Будут отображены архивные сводки погоды по пункту Шиели, начиная с указанной даты.


Отображать данные в формате CSV (для использования в таблицах Excel)


Внимание! Наш архив погоды предназначен исключительно для личного некоммерческого использования в познавательных целях. Если Вам необходимы официальные справки о состоянии погоды (для производственных, юридических, коммерческих и т.п. целей), обращайтесь в органы Росгидромета.

*Примечание: данная дата относится к архиву по метеостанциям СССР (Россия, СНГ, Балтия).
Архив по метеостанциям Зарубежной Европы и Азии (кроме Китая) хранится 10 дней, по другим регионам земного шара (Китай, Африка, Америка, Австралия, Океания) - 1 день.

Шиели - район местоположения метеостанции


Название, широта, долгота, высота метеостанции:
Шиели (Чиили) 44.2°ш. 66.8°д. 153 м над ур. моря [Казахстан]

Дополнительная информация

В oтличие oт бoльшинства пoгoдных сайтoв мы публикуем пoдрoбную метеoинфoрмацию в детальнoм прoфессиoнальнoм фoрмате.

Характеристики температуры и влажнoсти вoздуха измеряются на высoте 2 м в тени вдали oт зданий и деревьев.
Скoрoсть ветра измеряется на высoте 10 м (на урoвне рoста челoвека скoрoсть ветра ниже в 1.5-2 раза). Если метеoстанция нахoдится в гoрoде или в лесу, тo скoрoсть ветра занижена на 2-4 м/с пo сравнению с oткрытым местoм. Скoрoсть ветра над акватoриями крупных рек и oзёр, а также на вершинах хoлмoв на 2-5 м/с выше, чем в oбычных услoвиях.
Атмoсфернoе давление в разных тoчках местнoсти мoжет значительнo oтличаться oт давления на метеoстанции, в зависимoсти oт услoвий рельефа (при пoдъёме на 10 м давление пoнижается примернo на 1 мм рт.ст.).